SCP
0 0 0 0 0 0 0 0 0 0 0 0 0 0 0 0 0 0 0 0 0 0 0 0 0 0 0 0 0 0 0 0 0 0 0 0 0 0 0 0 0 0 0
0 0 0 0 0 0 0 0 0 0 0 0 0 0 0 0 0 0 0 0 0 0 0 0 0 0 0 0 0 0 0 0 0 0 0 0 0 0 0 0 0 0 0
0 0 0 0 0 0 0 0 0 0 0 0 0 0 0 0 0 0 0 0 0 0 0 0 0 0 0 0 0 0 0 0 0 0 0 0 0 0 0 0 0 0 0
0 0 0 0 0 0 0 0 0 0 0 0 0 0 0 0 0 0 0 0 0 0 0 0 0 0 0 0 0 0 0 0 0 0 0 0 0 0 0 0 0 0 0
0 0 0 0 0 0 0 0 0 0 0 0 0 0 0 0 0 0 0 0 0 0 0 0 0 0 0 0 0 0 0 0 0 0 0 0 0 0 0 0 0 0 0
0 0 0 0 0 0 0 0 0 0 0 0 0 0 0 0 0 0 0 0 0 0 0 0 0 0 0 0 0 0 0 0 0 0 0 0 0 0 0 0 0 0 0
0 0 0 0 0 0 0 0 0 0 0 0 0 0 0 0 0 0 0 0 0 0 0 0 0 0 0 0 0 0 0 0 0 0 0 0 0 0 0 0 0 0 0
0 0 0 0 0 0 0 0 0 0 0 0 0 0 0 0 0 0 0 0 0 0 0 0 0 0 0 0 0 0 0 0 0 0 0 0 0 0 0 0 0 0 0
0 0 0 0 0 0 0 0 0 0 0 0 0 0 0 0 0 0 0 0 0 0 0 0 0 0 0 0 0 0 0 0 0 0 0 0 0 0 0 0 0 0 0
0 0 0 0 0 0 0 0 0 0 0 0 0 0 0 0 0 0 0 0 0 0 0 0 0 0 0 0 0 0 0 0 0 0 0 0 0 0 0 0 0 0 0
0 0 0 0 0 0 0 0 0 0 0 0 0 0 0 0 0 0 0 0 0 0 0 0 0 0 0 0 0 0 0 0 0 0 0 0 0 0 0 0 0 0 0
0 0 0 0 0 0 0 0 0 0 0 0 0 0 0 0 0 0 0 0 0 0 0 0 0 0 0 0 0 0 0 0 0 0 0 0 0 0 0 0 0 0 0
0 0 0 0 0 0 0 0 0 0 0 0 0 0 0 0 0 0 0 0 0 0 0 0 0 0 0 0 0 0 0 0 0 0 0 0 0 0 0 0 0 0 0
0 0 0 0 0 0 0 0 0 0 0 0 0 0 0 0 0 0 0 0 0 0 0 0 0 0 0 0 0 0 0 0 0 0 0 0 0 0 0 0 0 0 0
0 0 0 0 0 0 0 0 0 0 0 0 0 0 0 0 0 0 0 0 0 0 0 0 0 0 0 0 0 0 0 0 0 0 0 0 0 0 0 0 0 0 0
0 0 0 0 0 0 0 0 0 0 0 0 0 0 0 0 0 0 0 0 0 0 0 0 0 0 0 0 0 0 0 0 0 0 0 0 0 0 0 0 0 0 0
0 0 0 0 0 0 0 0 0 0 0 0 0 0 0 0 0 0 0 0 0 0 0 0 0 0 0 0 0 0 0 0 0 0 0 0 0 0 0 0 0 0 0
0 0 0 0 0 0 0 0 0 0 0 0 0 0 0 0 0 0 0 0 0 0 0 0 0 0 0 0 0 0 0 0 0 0 0 0 0 0 0 0 0 0 0
0 0 0 0 0 0 0 0 0 0 0 0 0 0 0 0 0 0 0 0 0 0 0 0 0 0 0 0 0 0 0 0 0 0 0 0 0 0 0 0 0 0 0
0 0 0 0 0 0 0 0 0 0 0 0 0 0 0 0 0 0 0 0 0 0 0 0 0 0 0 0 0 0 0 0 0 0 0 0 0 0 0 0 0 0 0
0 0 0 0 0 0 0 0 0 0 0 0 0 0 0 0 0 0 0 0 0 0 0 0 0 0 0 0 0 0 0 0 0 0 0 0 0 0 0 0 0 0 0
0 0 0 0 0 0 0 0 0 0 0 0 0 0 0 0 0 0 0 0 0 0 0 0 0 0 0 0 0 0 0 0 0 0 0 0 0 0 0 0 0 0 0
0 0 0 0 0 0 0 0 0 0 0 0 0 0 0 0 0 0 0 0 0 0 0 0 0 0 0 0 0 0 0 0 0 0 0 0 0 0 0 0 0 0 0
0 0 0 0 0 0 0 0 0 0 0 0 0 0 0 0 0 0 0 0 0 0 0 0 0 0 0 0 0 0 0 0 0 0 0 0 0 0 0 0 0 0 0
0 0 0 0 0 0 0 0 0 0 0 0 0 0 0 0 0 0 0 0 0 0 0 0 0 0 0 0 0 0 0 0 0 0 0 0 0 0 0 0 0 0 0
0 0 0 0 0 0 0 0 0 0 0 0 0 0 0 0 0 0 0 0 0 0 0 0 0 0 0 0 0 0 0 0 0 0 0 0 0 0 0 0 0 0 0
Wind_Speed_500mb
38 45 43 38 40 37 37 33 31 27 24 21 18 18 18 17 15 21 19 19 22 23 20 19 17 12 9 8 8 10 11 12 10 7 5 5 5 6 7 6 8 7 9
42 47 45 40 39 39 37 33 30 26 25 22 21 22 20 15 19 19 26 23 21 20 22 22 16 12 14 16 18 16 16 16 15 13 12 9 7 9 9 8 9 9 7
44 50 43 45 43 42 40 39 35 32 30 27 23 23 22 18 15 17 19 22 23 24 21 21 17 19 19 20 21 22 23 18 20 18 15 10 10 10 16 14 13 13 11
46 54 49 48 47 47 46 49 46 43 34 29 21 19 21 22 21 20 17 19 26 26 28 30 29 28 23 18 19 19 19 14 20 19 13 14 15 17 15 18 17 16 14
52 56 56 56 51 47 47 49 48 44 38 31 27 23 23 25 28 28 27 26 31 32 32 31 30 27 20 16 12 14 16 15 14 16 15 14 10 16 19 24 21 20 19
50 57 56 54 56 54 48 43 45 46 41 35 29 27 25 27 29 35 34 32 30 28 27 27 27 20 16 12 13 13 12 15 9 10 12 17 13 13 16 19 21 20 20
51 56 55 56 54 54 53 49 49 47 43 38 33 30 26 25 25 26 29 28 25 25 24 25 24 15 14 16 12 11 4 6 8 12 13 13 19 20 29 27 25 31 48
46 55 55 54 53 51 49 49 50 48 44 41 37 31 26 25 24 24 23 23 22 22 25 22 17 15 15 11 10 9 7 11 12 12 16 20 24 33 37 39 35 31 31
45 50 54 53 53 50 50 49 47 48 46 43 39 35 30 28 26 24 22 21 21 22 23 19 16 8 8 9 12 12 15 14 13 14 19 28 31 33 31 29 30 28 23
44 50 53 54 53 52 53 52 49 48 50 50 41 34 29 28 25 23 21 24 19 23 18 17 14 12 16 15 20 19 18 16 18 21 24 24 31 31 32 29 24 29 25
44 50 54 53 54 55 53 52 47 47 50 50 46 34 29 29 27 23 21 25 24 24 23 20 16 14 15 24 31 26 23 22 18 22 27 33 32 29 31 31 32 26 11
45 50 52 52 51 51 51 48 49 50 49 47 44 38 35 32 29 25 22 22 25 27 29 20 13 21 27 30 31 30 27 25 25 35 27 35 32 29 23 23 20 21 4
43 47 49 51 53 51 51 51 50 50 48 45 44 45 39 36 34 32 21 27 23 32 28 16 20 25 27 32 35 34 36 33 35 35 37 26 20 19 27 22 21 14 14
45 46 48 54 54 50 51 50 50 48 47 45 45 45 44 40 43 44 41 31 24 36 30 20 25 29 31 34 33 37 44 34 37 38 26 15 18 17 14 18 15 22 22
50 47 52 55 56 52 52 51 51 52 49 47 48 48 46 46 43 44 43 35 27 40 30 25 27 33 35 35 42 47 42 37 41 39 24 16 7 14 19 13 18 24 24
52 54 55 59 58 55 54 52 51 51 50 50 50 47 41 38 42 41 36 36 29 37 28 29 32 36 40 40 48 46 44 44 41 32 26 17 10 8 12 18 19 21 22
56 56 61 58 61 61 57 53 53 52 51 50 46 43 37 35 39 44 43 33 36 34 30 31 38 40 39 44 47 57 48 40 34 29 27 22 10 23 20 19 19 18 19
60 62 61 62 65 64 61 57 57 54 51 49 43 39 37 36 39 43 47 44 42 30 34 41 46 43 43 45 45 56 47 47 42 35 26 24 14 21 16 23 22 16 16
67 66 65 66 67 66 65 63 59 55 53 49 47 44 42 42 43 42 40 36 28 33 41 45 48 48 46 49 52 53 56 51 43 39 31 26 17 22 25 29 30 25 19
64 62 63 65 69 69 69 68 64 61 58 55 52 45 45 46 49 52 44 43 38 41 44 49 47 46 47 52 53 44 41 45 46 42 37 30 23 24 31 30 36 34 33
52 57 64 68 71 75 78 77 74 71 66 62 58 52 49 46 49 47 39 35 38 45 48 52 51 48 53 51 50 44 48 44 44 40 36 32 29 33 35 35 39 41 35
58 57 64 69 75 78 79 78 76 74 70 66 60 53 48 45 46 43 42 41 47 47 50 57 57 60 58 60 54 53 30 33 42 43 40 37 35 39 41 41 42 42 40
63 68 75 75 75 78 81 81 80 72 69 69 66 57 54 49 49 48 45 51 47 45 50 52 60 61 65 66 58 34 21 19 32 44 44 43 47 47 45 43 43 42 41
70 69 72 76 79 83 84 88 85 81 75 72 67 63 62 52 53 55 49 47 44 44 52 55 62 67 65 65 64 63 40 21 18 19 45 55 53 50 47 46 45 43 41
51 63 70 73 77 80 86 85 82 78 70 64 60 62 56 51 53 55 53 51 54 56 56 56 61 67 67 68 67 68 66 50 32 25 14 33 55 52 50 48 46 44 42
45 54 62 65 66 70 76 79 78 75 73 67 59 55 53 51 54 56 56 56 56 54 56 57 58 61 68 71 69 68 70 64 55 39 29 19 28 46 51 50 47 45 43
Wind_Direction_500mb
178 176 173 171 177 183 186 189 197 193 198 197 193 196 187 183 194 204 194 178 173 181 171 177 199 219 258 255 256 255 247 235 221 214 193 166 147 139 137 141 145 160 181
183 172 168 173 177 179 180 182 184 193 192 193 196 198 198 195 163 158 171 180 184 193 212 218 233 264 265 268 275 278 278 250 233 221 212 210 218 232 212 213 207 199 193
183 172 169 175 180 183 187 188 189 192 194 194 198 197 196 189 190 183 189 194 203 211 213 229 274 280 272 274 271 270 276 260 234 230 219 209 232 237 223 223 225 219 211
185 177 177 179 181 182 181 181 181 182 188 195 197 195 200 207 203 204 220 235 245 251 254 263 271 276 277 272 269 278 280 270 247 223 217 224 232 238 240 242 235 223 212
186 183 185 183 187 185 183 184 186 193 197 202 207 216 228 231 229 234 242 249 257 258 261 266 267 271 274 274 281 277 278 267 237 201 213 224 235 249 250 255 233 200 194
191 188 192 191 198 198 199 198 199 200 203 210 217 225 239 248 248 246 251 259 259 257 256 256 260 267 269 279 285 279 264 258 211 204 213 227 197 219 183 169 155 148 146
193 191 195 199 206 210 214 216 219 214 213 217 220 226 238 252 256 254 253 253 251 250 247 252 263 263 275 287 280 291 257 270 177 199 198 197 208 175 153 144 144 142 138
191 194 200 205 209 214 218 223 231 229 228 228 229 234 245 253 256 257 253 251 245 235 240 248 253 266 279 287 204 222 217 166 169 182 185 190 174 159 150 139 134 140 154
195 200 202 206 212 217 223 227 230 239 240 237 236 240 249 257 253 250 252 244 225 224 233 244 260 257 250 236 175 175 157 152 162 157 153 146 151 147 146 137 135 138 149
201 203 209 211 214 219 224 229 234 238 243 243 242 248 258 261 257 253 246 226 209 208 213 233 247 168 194 190 158 159 163 175 188 162 154 146 141 136 140 139 134 130 137
210 210 213 214 216 220 227 230 233 241 247 254 247 245 246 247 244 235 214 212 201 208 217 222 245 233 198 169 164 175 182 185 185 178 181 153 133 126 124 123 123 123 130
218 217 216 216 217 220 223 224 227 234 240 250 240 232 233 235 233 224 214 203 206 218 220 236 235 187 174 168 173 179 184 170 178 178 166 131 130 125 118 114 122 118 174
223 224 225 221 219 220 221 223 228 232 237 245 232 229 223 222 217 216 214 208 219 226 241 253 189 180 162 168 175 192 180 174 173 167 147 147 130 123 107 109 110 108 117
230 231 229 225 222 223 223 226 232 234 239 241 233 230 231 225 224 219 205 214 236 239 247 245 193 175 169 177 188 191 180 188 171 166 165 162 140 132 121 114 111 113 122
236 236 233 230 227 229 226 229 232 234 236 234 234 233 237 239 230 212 200 198 209 243 249 236 194 176 171 182 185 179 180 188 177 168 166 169 161 141 126 124 144 130 135
242 241 237 234 231 232 230 233 234 234 234 234 238 242 241 233 226 206 193 193 196 241 247 218 197 179 179 186 184 185 180 178 172 168 139 142 139 156 123 131 142 138 136
247 244 239 237 233 234 233 233 233 233 232 230 230 234 233 232 221 207 191 188 183 224 240 223 206 185 179 189 190 183 173 179 175 164 161 153 186 154 152 155 147 153 144
247 246 243 239 236 234 232 232 230 230 228 230 233 230 230 228 221 210 204 199 192 198 224 220 203 189 188 180 174 177 180 175 174 174 177 171 222 192 196 185 185 177 160
254 246 242 239 236 234 232 229 228 228 227 231 231 230 231 222 217 214 212 200 178 214 225 215 206 197 193 199 196 188 182 178 181 179 187 188 202 223 228 222 202 192 178
248 243 240 237 234 230 228 225 224 224 226 229 231 232 227 218 210 203 195 206 189 209 213 209 209 197 201 197 176 178 192 192 188 187 186 193 207 241 236 230 219 208 180
239 238 237 233 230 226 222 221 221 222 223 227 228 229 229 229 226 210 194 196 203 211 208 204 205 203 198 196 207 204 204 190 197 202 207 211 218 235 236 236 225 220 219
240 237 235 232 228 226 224 224 222 220 223 228 230 229 226 224 215 210 197 199 211 208 209 206 204 202 203 205 200 194 202 213 214 219 221 225 234 246 240 235 231 225 221
243 237 234 233 230 227 224 220 220 220 222 224 225 223 221 216 211 212 208 204 199 211 216 211 207 209 206 201 204 200 188 216 220 231 234 235 245 247 241 234 229 225 231
247 238 232 230 228 224 221 221 222 224 223 226 227 224 218 215 219 214 211 205 211 212 223 217 214 210 214 215 210 216 226 219 201 241 245 239 237 236 233 229 228 230 234
231 230 228 226 225 225 223 224 223 222 224 229 227 225 222 224 227 228 220 216 206 217 220 218 216 216 216 220 223 219 224 233 228 233 248 244 231 229 229 229 231 233 236
226 222 219 220 222 223 223 223 223 223 225 228 226 221 223 230 229 226 221 219 212 221 221 220 221 220 219 224 226 231 233 234 233 236 238 251 237 233 230 232 232 235 237
Wind_Speed_850mb
38 45 43 38 40 37 37 33 31 27 24 21 18 18 18 17 15 21 19 19 22 23 20 19 17 12 9 8 8 10 11 12 10 7 5 5 5 6 7 6 8 7 9
42 47 45 40 39 39 37 33 30 26 25 22 21 22 20 15 19 19 26 23 21 20 22 22 16 12 14 16 18 16 16 16 15 13 12 9 7 9 9 8 9 9 7
44 50 43 45 43 42 40 39 35 32 30 27 23 23 22 18 15 17 19 22 23 24 21 21 17 19 19 20 21 22 23 18 20 18 15 10 10 10 16 14 13 13 11
46 54 49 48 47 47 46 49 46 43 34 29 21 19 21 22 21 20 17 19 26 26 28 30 29 28 23 18 19 19 19 14 20 19 13 14 15 17 15 18 17 16 14
52 56 56 56 51 47 47 49 48 44 38 31 27 23 23 25 28 28 27 26 31 32 32 31 30 27 20 16 12 14 16 15 14 16 15 14 10 16 19 24 21 20 19
50 57 56 54 56 54 48 43 45 46 41 35 29 27 25 27 29 35 34 32 30 28 27 27 27 20 16 12 13 13 12 15 9 10 12 17 13 13 16 19 21 20 20
51 56 55 56 54 54 53 49 49 47 43 38 33 30 26 25 25 26 29 28 25 25 24 25 24 15 14 16 12 11 4 6 8 12 13 13 19 20 29 27 25 31 48
46 55 55 54 53 51 49 49 50 48 44 41 37 31 26 25 24 24 23 23 22 22 25 22 17 15 15 11 10 9 7 11 12 12 16 20 24 33 37 39 35 31 31
45 50 54 53 53 50 50 49 47 48 46 43 39 35 30 28 26 24 22 21 21 22 23 19 16 8 8 9 12 12 15 14 13 14 19 28 31 33 31 29 30 28 23
44 50 53 54 53 52 53 52 49 48 50 50 41 34 29 28 25 23 21 24 19 23 18 17 14 12 16 15 20 19 18 16 18 21 24 24 31 31 32 29 24 29 25
44 50 54 53 54 55 53 52 47 47 50 50 46 34 29 29 27 23 21 25 24 24 23 20 16 14 15 24 31 26 23 22 18 22 27 33 32 29 31 31 32 26 11
45 50 52 52 51 51 51 48 49 50 49 47 44 38 35 32 29 25 22 22 25 27 29 20 13 21 27 30 31 30 27 25 25 35 27 35 32 29 23 23 20 21 4
43 47 49 51 53 51 51 51 50 50 48 45 44 45 39 36 34 32 21 27 23 32 28 16 20 25 27 32 35 34 36 33 35 35 37 26 20 19 27 22 21 14 14
45 46 48 54 54 50 51 50 50 48 47 45 45 45 44 40 43 44 41 31 24 36 30 20 25 29 31 34 33 37 44 34 37 38 26 15 18 17 14 18 15 22 22
50 47 52 55 56 52 52 51 51 52 49 47 48 48 46 46 43 44 43 35 27 40 30 25 27 33 35 35 42 47 42 37 41 39 24 16 7 14 19 13 18 24 24
52 54 55 59 58 55 54 52 51 51 50 50 50 47 41 38 42 41 36 36 29 37 28 29 32 36 40 40 48 46 44 44 41 32 26 17 10 8 12 18 19 21 22
56 56 61 58 61 61 57 53 53 52 51 50 46 43 37 35 39 44 43 33 36 34 30 31 38 40 39 44 47 57 48 40 34 29 27 22 10 23 20 19 19 18 19
60 62 61 62 65 64 61 57 57 54 51 49 43 39 37 36 39 43 47 44 42 30 34 41 46 43 43 45 45 56 47 47 42 35 26 24 14 21 16 23 22 16 16
67 66 65 66 67 66 65 63 59 55 53 49 47 44 42 42 43 42 40 36 28 33 41 45 48 48 46 49 52 53 56 51 43 39 31 26 17 22 25 29 30 25 19
64 62 63 65 69 69 69 68 64 61 58 55 52 45 45 46 49 52 44 43 38 41 44 49 47 46 47 52 53 44 41 45 46 42 37 30 23 24 31 30 36 34 33
52 57 64 68 71 75 78 77 74 71 66 62 58 52 49 46 49 47 39 35 38 45 48 52 51 48 53 51 50 44 48 44 44 40 36 32 29 33 35 35 39 41 35
58 57 64 69 75 78 79 78 76 74 70 66 60 53 48 45 46 43 42 41 47 47 50 57 57 60 58 60 54 53 30 33 42 43 40 37 35 39 41 41 42 42 40
63 68 75 75 75 78 81 81 80 72 69 69 66 57 54 49 49 48 45 51 47 45 50 52 60 61 65 66 58 34 21 19 32 44 44 43 47 47 45 43 43 42 41
70 69 72 76 79 83 84 88 85 81 75 72 67 63 62 52 53 55 49 47 44 44 52 55 62 67 65 65 64 63 40 21 18 19 45 55 53 50 47 46 45 43 41
51 63 70 73 77 80 86 85 82 78 70 64 60 62 56 51 53 55 53 51 54 56 56 56 61 67 67 68 67 68 66 50 32 25 14 33 55 52 50 48 46 44 42
45 54 62 65 66 70 76 79 78 75 73 67 59 55 53 51 54 56 56 56 56 54 56 57 58 61 68 71 69 68 70 64 55 39 29 19 28 46 51 50 47 45 43
Wind_Direction_850mb
178 176 173 171 177 183 186 189 197 193 198 197 193 196 187 183 194 204 194 178 173 181 171 177 199 219 258 255 256 255 247 235 221 214 193 166 147 139 137 141 145 160 181
183 172 168 173 177 179 180 182 184 193 192 193 196 198 198 195 163 158 171 180 184 193 212 218 233 264 265 268 275 278 278 250 233 221 212 210 218 232 212 213 207 199 193
183 172 169 175 180 183 187 188 189 192 194 194 198 197 196 189 190 183 189 194 203 211 213 229 274 280 272 274 271 270 276 260 234 230 219 209 232 237 223 223 225 219 211
185 177 177 179 181 182 181 181 181 182 188 195 197 195 200 207 203 204 220 235 245 251 254 263 271 276 277 272 269 278 280 270 247 223 217 224 232 238 240 242 235 223 212
186 183 185 183 187 185 183 184 186 193 197 202 207 216 228 231 229 234 242 249 257 258 261 266 267 271 274 274 281 277 278 267 237 201 213 224 235 249 250 255 233 200 194
191 188 192 191 198 198 199 198 199 200 203 210 217 225 239 248 248 246 251 259 259 257 256 256 260 267 269 279 285 279 264 258 211 204 213 227 197 219 183 169 155 148 146
193 191 195 199 206 210 214 216 219 214 213 217 220 226 238 252 256 254 253 253 251 250 247 252 263 263 275 287 280 291 257 270 177 199 198 197 208 175 153 144 144 142 138
191 194 200 205 209 214 218 223 231 229 228 228 229 234 245 253 256 257 253 251 245 235 240 248 253 266 279 287 204 222 217 166 169 182 185 190 174 159 150 139 134 140 154
195 200 202 206 212 217 223 227 230 239 240 237 236 240 249 257 253 250 252 244 225 224 233 244 260 257 250 236 175 175 157 152 162 157 153 146 151 147 146 137 135 138 149
201 203 209 211 214 219 224 229 234 238 243 243 242 248 258 261 257 253 246 226 209 208 213 233 247 168 194 190 158 159 163 175 188 162 154 146 141 136 140 139 134 130 137
210 210 213 214 216 220 227 230 233 241 247 254 247 245 246 247 244 235 214 212 201 208 217 222 245 233 198 169 164 175 182 185 185 178 181 153 133 126 124 123 123 123 130
218 217 216 216 217 220 223 224 227 234 240 250 240 232 233 235 233 224 214 203 206 218 220 236 235 187 174 168 173 179 184 170 178 178 166 131 130 125 118 114 122 118 174
223 224 225 221 219 220 221 223 228 232 237 245 232 229 223 222 217 216 214 208 219 226 241 253 189 180 162 168 175 192 180 174 173 167 147 147 130 123 107 109 110 108 117
230 231 229 225 222 223 223 226 232 234 239 241 233 230 231 225 224 219 205 214 236 239 247 245 193 175 169 177 188 191 180 188 171 166 165 162 140 132 121 114 111 113 122
236 236 233 230 227 229 226 229 232 234 236 234 234 233 237 239 230 212 200 198 209 243 249 236 194 176 171 182 185 179 180 188 177 168 166 169 161 141 126 124 144 130 135
242 241 237 234 231 232 230 233 234 234 234 234 238 242 241 233 226 206 193 193 196 241 247 218 197 179 179 186 184 185 180 178 172 168 139 142 139 156 123 131 142 138 136
247 244 239 237 233 234 233 233 233 233 232 230 230 234 233 232 221 207 191 188 183 224 240 223 206 185 179 189 190 183 173 179 175 164 161 153 186 154 152 155 147 153 144
247 246 243 239 236 234 232 232 230 230 228 230 233 230 230 228 221 210 204 199 192 198 224 220 203 189 188 180 174 177 180 175 174 174 177 171 222 192 196 185 185 177 160
254 246 242 239 236 234 232 229 228 228 227 231 231 230 231 222 217 214 212 200 178 214 225 215 206 197 193 199 196 188 182 178 181 179 187 188 202 223 228 222 202 192 178
248 243 240 237 234 230 228 225 224 224 226 229 231 232 227 218 210 203 195 206 189 209 213 209 209 197 201 197 176 178 192 192 188 187 186 193 207 241 236 230 219 208 180
239 238 237 233 230 226 222 221 221 222 223 227 228 229 229 229 226 210 194 196 203 211 208 204 205 203 198 196 207 204 204 190 197 202 207 211 218 235 236 236 225 220 219
240 237 235 232 228 226 224 224 222 220 223 228 230 229 226 224 215 210 197 199 211 208 209 206 204 202 203 205 200 194 202 213 214 219 221 225 234 246 240 235 231 225 221
243 237 234 233 230 227 224 220 220 220 222 224 225 223 221 216 211 212 208 204 199 211 216 211 207 209 206 201 204 200 188 216 220 231 234 235 245 247 241 234 229 225 231
247 238 232 230 228 224 221 221 222 224 223 226 227 224 218 215 219 214 211 205 211 212 223 217 214 210 214 215 210 216 226 219 201 241 245 239 237 236 233 229 228 230 234
231 230 228 226 225 225 223 224 223 222 224 229 227 225 222 224 227 228 220 216 206 217 220 218 216 216 216 220 223 219 224 233 228 233 248 244 231 229 229 229 231 233 236
226 222 219 220 222 223 223 223 223 223 225 228 226 221 223 230 229 226 221 219 212 221 221 220 221 220 219 224 226 231 233 234 233 236 238 251 237 233 230 232 232 235 237